Tabellarische Ansicht des 26.4.2009


Die einzelnen Werte des Tages

Uhrzeit Temperatur Luftdruck Luftfeuchte Wind Hi-Wind Taupunkt THW Index Wind Chill Heat Index Solar- strahlung Regen

00:00

12.7 C

1011.2 hpa

80 %

0.0 km/h aus 111

0.0 km/h aus ---

9.4 C

12.6 C

12.7 C

12.6 C

0 W/m

0.00 mm

00:05

12.4 C

1011.2 hpa

81 %

0.0 km/h aus 112

0.0 km/h aus ---

9.3 C

12.3 C

12.4 C

12.3 C

0 W/m

0.00 mm

00:10

12.3 C

1011.2 hpa

82 %

0.0 km/h aus 110

0.0 km/h aus ---

9.3 C

12.2 C

12.3 C

12.2 C

0 W/m

0.00 mm

00:15

12.3 C

1011.2 hpa

82 %

0.0 km/h aus 110

3.2 km/h aus SW

9.3 C

12.2 C

12.3 C

12.2 C

0 W/m

0.00 mm

00:20

12.4 C

1011.2 hpa

82 %

0.0 km/h aus 113

1.6 km/h aus SW

9.5 C

12.3 C

12.4 C

12.3 C

0 W/m

0.00 mm

00:25

12.1 C

1011.2 hpa

82 %

0.0 km/h aus 113

0.0 km/h aus ---

9.1 C

12.0 C

12.1 C

12.0 C

0 W/m

0.00 mm

00:30

11.9 C

1011.3 hpa

83 %

0.0 km/h aus 107

1.6 km/h aus SW

9.1 C

11.8 C

11.9 C

11.8 C

0 W/m

0.00 mm

00:35

12.0 C

1011.3 hpa

83 %

0.0 km/h aus 106

0.0 km/h aus ---

9.2 C

11.9 C

12.0 C

11.9 C

0 W/m

0.00 mm

00:40

11.9 C

1011.3 hpa

84 %

0.0 km/h aus 112

1.6 km/h aus SW

9.3 C

11.8 C

11.9 C

11.8 C

0 W/m

0.00 mm

00:45

11.9 C

1011.2 hpa

84 %

1.6 km/h aus 110

3.2 km/h aus SW

9.3 C

11.8 C

11.9 C

11.8 C

0 W/m

0.00 mm

00:50

11.8 C

1011.2 hpa

85 %

1.6 km/h aus 112

3.2 km/h aus SW

9.4 C

11.8 C

11.8 C

11.8 C

0 W/m

0.00 mm

00:55

11.8 C

1011.2 hpa

85 %

0.0 km/h aus 110

1.6 km/h aus SW

9.4 C

11.8 C

11.8 C

11.8 C

0 W/m

0.00 mm

01:00

11.7 C

1011.2 hpa

85 %

0.0 km/h aus 114

3.2 km/h aus SW

9.3 C

11.7 C

11.7 C

11.7 C

0 W/m

0.00 mm

01:05

11.4 C

1011.2 hpa

85 %

0.0 km/h aus 107

3.2 km/h aus SW

9.0 C

11.4 C

11.4 C

11.4 C

0 W/m

0.00 mm

01:10

11.0 C

1011.2 hpa

85 %

0.0 km/h aus 115

0.0 km/h aus ---

8.6 C

11.0 C

11.0 C

11.0 C

0 W/m

0.00 mm

01:15

10.8 C

1011.2 hpa

86 %

0.0 km/h aus 115

0.0 km/h aus ---

8.5 C

10.8 C

10.8 C

10.8 C

0 W/m

0.00 mm

01:20

10.7 C

1011.2 hpa

87 %

0.0 km/h aus 112

1.6 km/h aus SW

8.6 C

10.8 C

10.7 C

10.8 C

0 W/m

0.00 mm

01:25

10.6 C

1011.2 hpa

86 %

0.0 km/h aus 114

0.0 km/h aus ---

8.4 C

10.6 C

10.6 C

10.6 C

0 W/m

0.00 mm

01:30

10.3 C

1011.1 hpa

86 %

0.0 km/h aus 114

0.0 km/h aus ---

8.1 C

10.4 C

10.3 C

10.4 C

0 W/m

0.00 mm

01:35

10.1 C

1011.1 hpa

87 %

0.0 km/h aus 115

0.0 km/h aus ---

8.0 C

10.2 C

10.1 C

10.2 C

0 W/m

0.00 mm

01:40

10.0 C

1011.1 hpa

87 %

1.6 km/h aus 112

3.2 km/h aus SW

7.9 C

10.1 C

10.0 C

10.1 C

0 W/m

0.00 mm

01:45

9.8 C

1010.9 hpa

87 %

0.0 km/h aus 108

1.6 km/h aus SW

7.8 C

9.9 C

9.8 C

9.9 C

0 W/m

0.00 mm

01:50

9.8 C

1010.9 hpa

88 %

0.0 km/h aus 112

1.6 km/h aus SW

7.9 C

9.9 C

9.8 C

9.9 C

0 W/m

0.00 mm

01:55

9.8 C

1010.9 hpa

89 %

0.0 km/h aus 113

0.0 km/h aus ---

8.1 C

10.0 C

9.8 C

10.0 C

0 W/m

0.00 mm

02:00

9.9 C

1010.7 hpa

89 %

1.6 km/h aus 112

3.2 km/h aus SW

8.2 C

10.1 C

9.9 C

10.1 C

0 W/m

0.00 mm

02:05

9.9 C

1010.7 hpa

89 %

0.0 km/h aus 106

1.6 km/h aus SW

8.2 C

10.1 C

9.9 C

10.1 C

0 W/m

0.00 mm

02:10

9.9 C

1010.7 hpa

89 %

0.0 km/h aus 115

1.6 km/h aus SW

8.2 C

10.1 C

9.9 C

10.1 C

0 W/m

0.00 mm

02:15

9.9 C

1010.7 hpa

90 %

1.6 km/h aus 112

3.2 km/h aus SW

8.3 C

10.1 C

9.9 C

10.1 C

0 W/m

0.00 mm

02:20

9.9 C

1010.7 hpa

90 %

0.0 km/h aus 113

1.6 km/h aus SW

8.3 C

10.1 C

9.9 C

10.1 C

0 W/m

0.00 mm

02:25

9.9 C

1010.7 hpa

90 %

0.0 km/h aus 110

0.0 km/h aus ---

8.4 C

10.1 C

9.9 C

10.1 C

0 W/m

0.00 mm

02:30

10.1 C

1010.7 hpa

90 %

0.0 km/h aus 116

0.0 km/h aus ---

8.5 C

10.2 C

10.1 C

10.2 C

0 W/m

0.00 mm

02:35

10.1 C

1010.7 hpa

90 %

0.0 km/h aus 114

0.0 km/h aus ---

8.5 C

10.2 C

10.1 C

10.2 C

0 W/m

0.00 mm

02:40

10.0 C

1010.7 hpa

90 %

0.0 km/h aus 113

1.6 km/h aus SW

8.4 C

10.2 C

10.0 C

10.2 C

0 W/m

0.00 mm

02:45

10.0 C

1010.7 hpa

90 %

0.0 km/h aus 110

0.0 km/h aus ---

8.4 C

10.2 C

10.0 C

10.2 C

0 W/m

0.00 mm

02:50

10.2 C

1010.7 hpa

91 %

0.0 km/h aus 111

1.6 km/h aus SW

8.8 C

10.4 C

10.2 C

10.4 C

0 W/m

0.00 mm

02:55

10.6 C

1010.7 hpa

91 %

0.0 km/h aus 116

0.0 km/h aus ---

9.1 C

10.7 C

10.6 C

10.7 C

0 W/m

0.00 mm

03:00

10.8 C

1010.7 hpa

90 %

1.6 km/h aus 114

4.8 km/h aus SW

9.3 C

10.9 C

10.8 C

10.9 C

0 W/m

0.00 mm

03:05

11.0 C

1010.7 hpa

90 %

1.6 km/h aus 102

4.8 km/h aus SW

9.4 C

11.1 C

11.0 C

11.1 C

0 W/m

0.00 mm

03:10

11.2 C

1010.7 hpa

90 %

0.0 km/h aus 109

4.8 km/h aus SW

9.6 C

11.3 C

11.2 C

11.3 C

0 W/m

0.00 mm

03:15

11.2 C

1010.9 hpa

90 %

0.0 km/h aus 111

3.2 km/h aus SW

9.6 C

11.3 C

11.2 C

11.3 C

0 W/m

0.00 mm

03:20

11.1 C

1010.9 hpa

89 %

0.0 km/h aus 117

0.0 km/h aus ---

9.3 C

11.2 C

11.1 C

11.2 C

0 W/m

0.00 mm

03:25

10.8 C

1010.9 hpa

89 %

0.0 km/h aus 109

0.0 km/h aus ---

9.1 C

10.9 C

10.8 C

10.9 C

0 W/m

0.00 mm

03:30

10.6 C

1010.8 hpa

89 %

0.0 km/h aus 108

0.0 km/h aus ---

8.8 C

10.7 C

10.6 C

10.7 C

0 W/m

0.00 mm

03:35

10.4 C

1010.8 hpa

90 %

0.0 km/h aus 116

0.0 km/h aus ---

8.9 C

10.6 C

10.4 C

10.6 C

0 W/m

0.00 mm

03:40

10.3 C

1010.8 hpa

90 %

0.0 km/h aus 112

0.0 km/h aus ---

8.7 C

10.4 C

10.3 C

10.4 C

0 W/m

0.00 mm

03:45

10.2 C

1010.9 hpa

90 %

0.0 km/h aus 115

0.0 km/h aus ---

8.6 C

10.3 C

10.2 C

10.3 C

0 W/m

0.00 mm

03:50

10.1 C

1010.9 hpa

90 %

0.0 km/h aus 111

0.0 km/h aus ---

8.5 C

10.2 C

10.1 C

10.2 C

0 W/m

0.00 mm

03:55

9.9 C

1010.9 hpa

90 %

0.0 km/h aus 116

0.0 km/h aus ---

8.4 C

10.1 C

9.9 C

10.1 C

0 W/m

0.00 mm

04:00

9.8 C

1010.9 hpa

90 %

0.0 km/h aus 114

1.6 km/h aus SW

8.2 C

9.9 C

9.8 C

9.9 C

0 W/m

0.00 mm

04:05

9.8 C

1010.9 hpa

91 %

0.0 km/h aus 111

0.0 km/h aus ---

8.4 C

10.0 C

9.8 C

10.0 C

0 W/m

0.00 mm

04:10

9.8 C

1010.9 hpa

91 %

0.0 km/h aus 114

0.0 km/h aus ---

8.4 C

9.9 C

9.8 C

9.9 C

0 W/m

0.00 mm

04:15

9.7 C

1010.8 hpa

91 %

0.0 km/h aus 117

0.0 km/h aus ---

8.3 C

9.8 C

9.7 C

9.8 C

0 W/m

0.00 mm

04:20

9.5 C

1010.8 hpa

91 %

0.0 km/h aus 114

0.0 km/h aus ---

8.1 C

9.7 C

9.5 C

9.7 C

0 W/m

0.00 mm

04:25

9.5 C

1010.8 hpa

91 %

0.0 km/h aus 115

0.0 km/h aus ---

8.1 C

9.7 C

9.5 C

9.7 C

0 W/m

0.00 mm

04:30

9.6 C

1010.8 hpa

91 %

0.0 km/h aus 112

1.6 km/h aus SW

8.2 C

9.7 C

9.6 C

9.7 C

0 W/m

0.00 mm

04:35

9.4 C

1010.8 hpa

91 %

0.0 km/h aus 108

0.0 km/h aus ---

8.0 C

9.6 C

9.4 C

9.6 C

0 W/m

0.00 mm

04:40

9.3 C

1010.8 hpa

91 %

0.0 km/h aus 115

0.0 km/h aus ---

7.9 C

9.4 C

9.3 C

9.4 C

0 W/m

0.00 mm

04:45

9.2 C

1010.7 hpa

91 %

0.0 km/h aus 114

0.0 km/h aus ---

7.8 C

9.3 C

9.2 C

9.3 C

0 W/m

0.00 mm

04:50

9.2 C

1010.7 hpa

92 %

0.0 km/h aus 116

0.0 km/h aus ---

7.9 C

9.3 C

9.2 C

9.3 C

0 W/m

0.00 mm

04:55

9.1 C

1010.7 hpa

92 %

0.0 km/h aus 107

0.0 km/h aus ---

7.8 C

9.2 C

9.1 C

9.2 C

0 W/m

0.00 mm

05:00

9.1 C

1010.4 hpa

92 %

0.0 km/h aus 113

0.0 km/h aus ---

7.8 C

9.2 C

9.1 C

9.2 C

0 W/m

0.00 mm

05:05

8.9 C

1010.4 hpa

92 %

0.0 km/h aus 115

0.0 km/h aus ---

7.7 C

9.1 C

8.9 C

9.1 C

0 W/m

0.00 mm

05:10

8.9 C

1010.4 hpa

92 %

0.0 km/h aus 106

1.6 km/h aus SW

7.7 C

9.1 C

8.9 C

9.1 C

0 W/m

0.00 mm

05:15

8.9 C

1010.4 hpa

92 %

0.0 km/h aus 108

0.0 km/h aus ---

7.7 C

9.1 C

8.9 C

9.1 C

0 W/m

0.00 mm

05:20

9.0 C

1010.4 hpa

92 %

0.0 km/h aus 116

0.0 km/h aus ---

7.8 C

9.2 C

9.0 C

9.2 C

0 W/m

0.00 mm

05:25

8.8 C

1010.4 hpa

92 %

0.0 km/h aus 111

0.0 km/h aus ---

7.5 C

8.9 C

8.8 C

8.9 C

0 W/m

0.00 mm

05:30

8.5 C

1010.2 hpa

92 %

0.0 km/h aus 108

0.0 km/h aus ---

7.3 C

8.7 C

8.5 C

8.7 C

0 W/m

0.00 mm

05:35

8.4 C

1010.2 hpa

92 %

0.0 km/h aus 112

0.0 km/h aus ---

7.2 C

8.5 C

8.4 C

8.5 C

0 W/m

0.00 mm

05:40

8.4 C

1010.2 hpa

92 %

0.0 km/h aus 114

0.0 km/h aus ---

7.2 C

8.5 C

8.4 C

8.5 C

0 W/m

0.00 mm

05:45

8.3 C

1010.2 hpa

93 %

0.0 km/h aus 107

0.0 km/h aus ---

7.3 C

8.5 C

8.3 C

8.5 C

0 W/m

0.00 mm

05:50

8.4 C

1010.2 hpa

93 %

0.0 km/h aus 110

0.0 km/h aus ---

7.3 C

8.6 C

8.4 C

8.6 C

0 W/m

0.00 mm

05:55

8.4 C

1010.2 hpa

93 %

0.0 km/h aus 104

0.0 km/h aus ---

7.3 C

8.6 C

8.4 C

8.6 C

0 W/m

0.00 mm

06:00

8.3 C

1010.1 hpa

93 %

0.0 km/h aus 112

0.0 km/h aus ---

7.3 C

8.5 C

8.3 C

8.5 C

0 W/m

0.00 mm

06:05

8.2 C

1010.1 hpa

93 %

0.0 km/h aus 107

0.0 km/h aus ---

7.2 C

8.4 C

8.2 C

8.4 C

0 W/m

0.00 mm

06:10

8.2 C

1010.1 hpa

93 %

0.0 km/h aus 106

0.0 km/h aus ---

7.1 C

8.3 C

8.2 C

8.3 C

0 W/m

0.00 mm

06:15

8.3 C

1009.8 hpa

93 %

0.0 km/h aus 111

0.0 km/h aus ---

7.2 C

8.4 C

8.3 C

8.4 C

0 W/m

0.00 mm

06:20

8.3 C

1009.8 hpa

93 %

0.0 km/h aus 103

0.0 km/h aus ---

7.2 C

8.4 C

8.3 C

8.4 C

0 W/m

0.00 mm

06:25

8.1 C

1009.8 hpa

93 %

0.0 km/h aus 112

0.0 km/h aus ---

7.0 C

8.2 C

8.1 C

8.2 C

0 W/m

0.00 mm

06:30

8.1 C

1009.8 hpa

93 %

0.0 km/h aus 106

0.0 km/h aus ---

7.0 C

8.2 C

8.1 C

8.2 C

0 W/m

0.00 mm

06:35

8.0 C

1009.8 hpa

93 %

1.6 km/h aus 110

3.2 km/h aus SW

6.9 C

8.1 C

8.0 C

8.1 C

0 W/m

0.00 mm

06:40

7.8 C

1009.8 hpa

93 %

0.0 km/h aus 107

3.2 km/h aus SW

6.8 C

7.9 C

7.8 C

7.9 C

0 W/m

0.00 mm

06:45

8.1 C

1009.7 hpa

94 %

0.0 km/h aus 109

1.6 km/h aus SW

7.2 C

8.3 C

8.1 C

8.3 C

0 W/m

0.00 mm

06:50

8.5 C

1009.7 hpa

94 %

0.0 km/h aus 112

1.6 km/h aus SW

7.6 C

8.7 C

8.5 C

8.7 C

0 W/m

0.00 mm

06:55

8.6 C

1009.7 hpa

94 %

0.0 km/h aus 114

1.6 km/h aus SW

7.7 C

8.8 C

8.6 C

8.8 C

0 W/m

0.00 mm

07:00

8.6 C

1009.6 hpa

94 %

1.6 km/h aus 108

3.2 km/h aus SW

7.7 C

8.8 C

8.6 C

8.8 C

0 W/m

0.00 mm

07:05

8.6 C

1009.6 hpa

94 %

1.6 km/h aus 114

3.2 km/h aus SW

7.7 C

8.8 C

8.6 C

8.8 C

0 W/m

0.00 mm

07:10

8.8 C

1009.6 hpa

94 %

0.0 km/h aus 109

1.6 km/h aus SW

7.9 C

8.9 C

8.8 C

8.9 C

0 W/m

0.00 mm

07:15

8.9 C

1009.6 hpa

94 %

0.0 km/h aus 108

0.0 km/h aus ---

8.0 C

9.2 C

8.9 C

9.2 C

0 W/m

0.00 mm

07:20

9.2 C

1009.6 hpa

94 %

0.0 km/h aus 116

1.6 km/h aus SW

8.3 C

9.4 C

9.2 C

9.4 C

0 W/m

0.00 mm

07:25

9.3 C

1009.6 hpa

94 %

0.0 km/h aus 114

0.0 km/h aus ---

8.4 C

9.5 C

9.3 C

9.5 C

0 W/m

0.00 mm

07:30

9.6 C

1009.2 hpa

95 %

0.0 km/h aus 113

1.6 km/h aus SW

8.8 C

9.8 C

9.6 C

9.8 C

0 W/m

0.00 mm

07:35

9.9 C

1009.2 hpa

94 %

0.0 km/h aus 115

0.0 km/h aus ---

9.0 C

10.2 C

9.9 C

10.2 C

0 W/m

0.00 mm

07:40

10.3 C

1009.2 hpa

95 %

0.0 km/h aus 114

0.0 km/h aus ---

9.5 C

10.6 C

10.3 C

10.6 C

0 W/m

0.00 mm

07:45

10.5 C

1009.1 hpa

94 %

0.0 km/h aus 116

0.0 km/h aus ---

9.6 C

10.7 C

10.5 C

10.7 C

0 W/m

0.00 mm

07:50

10.7 C

1009.1 hpa

94 %

0.0 km/h aus 109

0.0 km/h aus ---

9.8 C

10.9 C

10.7 C

10.9 C

0 W/m

0.00 mm

07:55

10.9 C

1009.1 hpa

94 %

0.0 km/h aus 112

0.0 km/h aus ---

10.0 C

11.1 C

10.9 C

11.1 C

0 W/m

0.00 mm

08:00

11.3 C

1009.1 hpa

94 %

0.0 km/h aus 111

1.6 km/h aus SW

10.3 C

11.4 C

11.3 C

11.4 C

0 W/m

0.00 mm

08:05

11.7 C

1009.1 hpa

93 %

0.0 km/h aus 114

0.0 km/h aus ---

10.6 C

11.8 C

11.7 C

11.8 C

0 W/m

0.00 mm

08:10

12.1 C

1009.1 hpa

92 %

0.0 km/h aus 112

3.2 km/h aus WSW

10.9 C

12.2 C

12.1 C

12.2 C

0 W/m

0.00 mm

08:15

12.6 C

1008.9 hpa

89 %

0.0 km/h aus 105

3.2 km/h aus WSW

10.8 C

12.7 C

12.6 C

12.7 C

0 W/m

0.00 mm

08:20

13.1 C

1008.9 hpa

88 %

0.0 km/h aus 105

1.6 km/h aus WSW

11.1 C

13.1 C

13.1 C

13.1 C

0 W/m

0.00 mm

08:25

13.4 C

1008.9 hpa

86 %

1.6 km/h aus 107

3.2 km/h aus WSW

11.1 C

13.3 C

13.4 C

13.3 C

0 W/m

0.00 mm

08:30

13.6 C

1008.8 hpa

84 %

0.0 km/h aus 109

1.6 km/h aus WSW

11.0 C

13.6 C

13.6 C

13.6 C

0 W/m

0.00 mm

08:35

13.8 C

1008.8 hpa

82 %

0.0 km/h aus 111

3.2 km/h aus WSW

10.8 C

13.7 C

13.8 C

13.7 C

0 W/m

0.00 mm

08:40

13.9 C

1008.8 hpa

79 %

0.0 km/h aus 105

3.2 km/h aus WSW

10.4 C

13.8 C

13.9 C

13.8 C

0 W/m

0.00 mm

08:45

14.1 C

1008.6 hpa

79 %

0.0 km/h aus 109

3.2 km/h aus WSW

10.5 C

13.9 C

14.1 C

13.9 C

0 W/m

0.00 mm

08:50

14.2 C

1008.6 hpa

78 %

0.0 km/h aus 109

1.6 km/h aus WSW

10.4 C

14.1 C

14.2 C

14.1 C

0 W/m

0.00 mm

08:55

14.2 C

1008.6 hpa

76 %

0.0 km/h aus 101

3.2 km/h aus WSW

10.0 C

14.0 C

14.2 C

14.0 C

0 W/m

0.00 mm

09:00

14.3 C

1008.6 hpa

76 %

0.0 km/h aus 108

3.2 km/h aus WSW

10.1 C

14.1 C

14.3 C

14.1 C

0 W/m

0.00 mm

09:05

14.3 C

1008.6 hpa

75 %

1.6 km/h aus 109

3.2 km/h aus WSW

10.0 C

14.1 C

14.3 C

14.1 C

0 W/m

0.00 mm

09:10

14.3 C

1008.6 hpa

77 %

1.6 km/h aus 112

4.8 km/h aus WSW

10.3 C

14.1 C

14.3 C

14.1 C

0 W/m

0.00 mm

09:15

14.2 C

1008.6 hpa

77 %

3.2 km/h aus 106

6.4 km/h aus WSW

10.2 C

14.0 C

14.2 C

14.0 C

0 W/m

0.00 mm

09:20

14.1 C

1008.6 hpa

78 %

1.6 km/h aus 111

4.8 km/h aus WSW

10.3 C

13.9 C

14.1 C

13.9 C

0 W/m

0.00 mm

09:25

14.1 C

1008.6 hpa

77 %

1.6 km/h aus 112

6.4 km/h aus WSW

10.1 C

13.8 C

14.1 C

13.8 C

0 W/m

0.00 mm

09:30

14.0 C

1008.4 hpa

77 %

3.2 km/h aus 111

6.4 km/h aus WSW

10.0 C

13.8 C

14.0 C

13.8 C

0 W/m

0.00 mm

09:35

14.2 C

1008.4 hpa

78 %

3.2 km/h aus 110

8.0 km/h aus WSW

10.4 C

14.0 C

14.2 C

14.0 C

0 W/m

0.00 mm

09:40

14.2 C

1008.4 hpa

78 %

3.2 km/h aus 112

6.4 km/h aus WSW

10.4 C

14.1 C

14.2 C

14.1 C

0 W/m

0.00 mm

09:45

14.4 C

1008.2 hpa

79 %

3.2 km/h aus 105

6.4 km/h aus WSW

10.8 C

14.3 C

14.4 C

14.3 C

0 W/m

0.00 mm

09:50

14.6 C

1008.2 hpa

78 %

3.2 km/h aus 109

6.4 km/h aus WSW

10.8 C

14.4 C

14.6 C

14.4 C

0 W/m

0.00 mm

09:55

14.9 C

1008.2 hpa

77 %

1.6 km/h aus 116

4.8 km/h aus WSW

10.9 C

14.7 C

14.9 C

14.7 C

0 W/m

0.00 mm

10:00

15.0 C

1008.1 hpa

76 %

1.6 km/h aus 109

4.8 km/h aus WSW

10.8 C

14.8 C

15.0 C

14.8 C

0 W/m

0.00 mm

10:05

15.1 C

1008.1 hpa

75 %

3.2 km/h aus 111

6.4 km/h aus WSW

10.7 C

14.8 C

15.1 C

14.8 C

0 W/m

0.00 mm

10:10

15.1 C

1008.1 hpa

74 %

0.0 km/h aus 112

1.6 km/h aus WSW

10.5 C

14.8 C

15.1 C

14.8 C

0 W/m

0.00 mm

10:15

15.2 C

1008.0 hpa

73 %

0.0 km/h aus 110

3.2 km/h aus WSW

10.4 C

14.8 C

15.2 C

14.8 C

0 W/m

0.00 mm

10:20

15.3 C

1008.0 hpa

75 %

1.6 km/h aus 114

3.2 km/h aus WSW

10.9 C

15.1 C

15.3 C

15.1 C

0 W/m

0.00 mm

10:25

15.9 C

1008.0 hpa

73 %

0.0 km/h aus 114

4.8 km/h aus WSW

11.1 C

15.7 C

15.9 C

15.7 C

0 W/m

0.00 mm

10:30

16.3 C

1007.8 hpa

71 %

1.6 km/h aus 116

4.8 km/h aus WSW

11.1 C

16.1 C

16.3 C

16.1 C

0 W/m

0.00 mm

10:35

16.6 C

1007.8 hpa

71 %

1.6 km/h aus 113

3.2 km/h aus WSW

11.3 C

16.4 C

16.6 C

16.4 C

0 W/m

0.00 mm

10:40

17.0 C

1007.8 hpa

70 %

1.6 km/h aus 115

6.4 km/h aus WSW

11.5 C

16.8 C

17.0 C

16.8 C

0 W/m

0.00 mm

10:45

17.5 C

1007.6 hpa

70 %

1.6 km/h aus 115

4.8 km/h aus WSW

12.0 C

17.4 C

17.5 C

17.4 C

0 W/m

0.00 mm

10:50

17.5 C

1007.6 hpa

67 %

1.6 km/h aus 115

4.8 km/h aus WSW

11.3 C

17.3 C

17.5 C

17.3 C

0 W/m

0.00 mm

10:55

17.5 C

1007.6 hpa

67 %

1.6 km/h aus 111

6.4 km/h aus WSW

11.3 C

17.3 C

17.5 C

17.3 C

0 W/m

0.00 mm

11:00

17.9 C

1007.5 hpa

67 %

0.0 km/h aus 112

1.6 km/h aus WSW

11.7 C

17.7 C

17.9 C

17.7 C

0 W/m

0.00 mm

11:05

18.3 C

1007.5 hpa

63 %

3.2 km/h aus 116

8.0 km/h aus WSW

11.2 C

18.1 C

18.3 C

18.1 C

0 W/m

0.00 mm

11:10

18.3 C

1007.5 hpa

66 %

3.2 km/h aus 114

8.0 km/h aus WSW

11.8 C

18.1 C

18.3 C

18.1 C

0 W/m

0.00 mm

11:15

18.3 C

1007.2 hpa

63 %

1.6 km/h aus 114

3.2 km/h aus WSW

11.1 C

18.0 C

18.3 C

18.0 C

0 W/m

0.00 mm

11:20

18.7 C

1007.2 hpa

64 %

1.6 km/h aus 112

6.4 km/h aus WSW

11.8 C

18.6 C

18.7 C

18.6 C

0 W/m

0.00 mm

11:25

19.1 C

1007.2 hpa

60 %

1.6 km/h aus 115

8.0 km/h aus WSW

11.1 C

18.7 C

19.1 C

18.7 C

0 W/m

0.00 mm

11:30

19.4 C

1007.0 hpa

61 %

1.6 km/h aus 112

4.8 km/h aus WSW

11.7 C

19.2 C

19.4 C

19.2 C

0 W/m

0.00 mm

11:35

19.9 C

1007.0 hpa

61 %

1.6 km/h aus 112

4.8 km/h aus WSW

12.2 C

19.8 C

19.9 C

19.8 C

0 W/m

0.00 mm

11:40

20.2 C

1007.0 hpa

59 %

1.6 km/h aus 114

4.8 km/h aus WSW

11.9 C

19.9 C

20.2 C

19.9 C

0 W/m

0.00 mm

11:45

20.4 C

1007.0 hpa

59 %

0.0 km/h aus 118

3.2 km/h aus WSW

12.1 C

20.1 C

20.4 C

20.1 C

0 W/m

0.00 mm

11:50

20.7 C

1007.0 hpa

59 %

1.6 km/h aus 115

6.4 km/h aus WSW

12.4 C

20.3 C

20.7 C

20.3 C

0 W/m

0.00 mm

11:55

20.8 C

1007.0 hpa

57 %

3.2 km/h aus 117

9.7 km/h aus SSW

12.0 C

20.3 C

20.8 C

20.3 C

0 W/m

0.00 mm

12:00

21.2 C

1006.5 hpa

59 %

3.2 km/h aus 114

8.0 km/h aus ENE

12.9 C

20.8 C

21.2 C

20.8 C

0 W/m

0.00 mm

12:05

21.3 C

1006.5 hpa

56 %

3.2 km/h aus 114

6.4 km/h aus ENE

12.1 C

20.7 C

21.3 C

20.7 C

0 W/m

0.00 mm

12:10

21.6 C

1006.5 hpa

54 %

3.2 km/h aus 112

8.0 km/h aus ENE

11.9 C

21.0 C

21.6 C

21.0 C

0 W/m

0.00 mm

12:15

21.4 C

1006.5 hpa

54 %

4.8 km/h aus 115

11.3 km/h aus ESE

11.7 C

20.8 C

21.4 C

20.8 C

0 W/m

0.00 mm

12:20

21.3 C

1006.5 hpa

52 %

4.8 km/h aus 108

8.0 km/h aus E

11.1 C

20.6 C

21.3 C

20.6 C

0 W/m

0.00 mm

12:25

21.4 C

1006.5 hpa

54 %

3.2 km/h aus 112

11.3 km/h aus E

11.7 C

20.8 C

21.4 C

20.8 C

0 W/m

0.00 mm

12:30

21.6 C

1006.3 hpa

51 %

4.8 km/h aus 117

9.7 km/h aus E

11.0 C

20.8 C

21.6 C

20.8 C

0 W/m

0.00 mm

12:35

21.8 C

1006.3 hpa

51 %

4.8 km/h aus 116

14.5 km/h aus ENE

11.2 C

21.2 C

21.8 C

21.2 C

0 W/m

0.00 mm

12:40

22.3 C

1006.3 hpa

53 %

4.8 km/h aus 115

11.3 km/h aus NE

12.2 C

21.9 C

22.3 C

21.9 C

0 W/m

0.00 mm

12:45

22.3 C

1006.0 hpa

52 %

4.8 km/h aus 117

11.3 km/h aus ENE

11.9 C

21.9 C

22.3 C

21.9 C

0 W/m

0.00 mm

12:50

22.6 C

1006.0 hpa

51 %

4.8 km/h aus 115

9.7 km/h aus ENE

11.9 C

22.2 C

22.6 C

22.2 C

0 W/m

0.00 mm

12:55

22.7 C

1006.0 hpa

50 %

4.8 km/h aus 113

9.7 km/h aus ENE

11.8 C

22.4 C

22.7 C

22.4 C

0 W/m

0.00 mm

13:00

22.7 C

1006.0 hpa

49 %

4.8 km/h aus 115

12.9 km/h aus E

11.4 C

22.3 C

22.7 C

22.3 C

0 W/m

0.00 mm

13:05

22.9 C

1006.0 hpa

51 %

4.8 km/h aus 117

9.7 km/h aus E

12.2 C

22.7 C

22.9 C

22.7 C

0 W/m

0.00 mm

13:10

22.8 C

1006.0 hpa

49 %

3.2 km/h aus 116

11.3 km/h aus ESE

11.5 C

22.4 C

22.8 C

22.4 C

0 W/m

0.00 mm

13:15

22.4 C

1005.7 hpa

52 %

3.2 km/h aus 115

6.4 km/h aus ESE

12.1 C

22.1 C

22.4 C

22.1 C

0 W/m

0.00 mm

13:20

22.6 C

1005.7 hpa

47 %

4.8 km/h aus 114

12.9 km/h aus SE

10.7 C

22.1 C

22.6 C

22.1 C

0 W/m

0.00 mm

13:25

22.6 C

1005.7 hpa

48 %

3.2 km/h aus 114

8.0 km/h aus SSE

11.0 C

22.1 C

22.6 C

22.1 C

0 W/m

0.00 mm

13:30

23.0 C

1005.5 hpa

48 %

6.4 km/h aus 116

16.1 km/h aus ENE

11.4 C

22.7 C

23.0 C

22.7 C

0 W/m

0.00 mm

13:35

23.3 C

1005.5 hpa

48 %

4.8 km/h aus 117

16.1 km/h aus SSE

11.6 C

23.1 C

23.3 C

23.1 C

0 W/m

0.00 mm

13:40

23.2 C

1005.5 hpa

46 %

3.2 km/h aus 115

9.7 km/h aus ENE

10.9 C

22.8 C

23.2 C

22.8 C

0 W/m

0.00 mm

13:45

23.6 C

1005.3 hpa

48 %

6.4 km/h aus 114

14.5 km/h aus ENE

12.0 C

23.5 C

23.6 C

23.5 C

0 W/m

0.00 mm

13:50

23.8 C

1005.3 hpa

45 %

4.8 km/h aus 117

14.5 km/h aus ESE

11.2 C

23.7 C

23.8 C

23.7 C

0 W/m

0.00 mm

13:55

24.2 C

1005.3 hpa

42 %

11.3 km/h aus 117

19.3 km/h aus E

10.4 C

23.8 C

24.2 C

23.8 C

0 W/m

0.00 mm

14:00

24.2 C

1005.0 hpa

39 %

8.0 km/h aus 116

17.7 km/h aus SSE

9.4 C

23.7 C

24.2 C

23.7 C

0 W/m

0.00 mm

14:05

24.4 C

1005.0 hpa

37 %

12.9 km/h aus 116

20.9 km/h aus ESE

8.8 C

23.5 C

24.1 C

23.8 C

0 W/m

0.00 mm

14:10

24.2 C

1005.0 hpa

38 %

9.7 km/h aus 115

17.7 km/h aus SE

9.0 C

23.7 C

24.2 C

23.7 C

0 W/m

0.00 mm

14:15

24.2 C

1004.8 hpa

37 %

6.4 km/h aus 117

17.7 km/h aus E

8.6 C

23.6 C

24.2 C

23.6 C

0 W/m

0.00 mm

14:20

24.4 C

1004.8 hpa

36 %

6.4 km/h aus 115

14.5 km/h aus E

8.4 C

23.8 C

24.4 C

23.8 C

0 W/m

0.00 mm

14:25

24.6 C

1004.8 hpa

43 %

4.8 km/h aus 117

14.5 km/h aus ENE

11.2 C

24.3 C

24.6 C

24.3 C

0 W/m

0.00 mm

14:30

24.8 C

1004.4 hpa

36 %

12.9 km/h aus 115

20.9 km/h aus ENE

8.7 C

24.0 C

24.6 C

24.3 C

0 W/m

0.00 mm

14:35

24.6 C

1004.4 hpa

35 %

9.7 km/h aus 114

17.7 km/h aus ESE

8.1 C

24.0 C

24.6 C

24.0 C

0 W/m

0.00 mm

14:40

24.5 C

1004.4 hpa

35 %

6.4 km/h aus 115

17.7 km/h aus NE

8.0 C

23.8 C

24.5 C

23.8 C

0 W/m

0.00 mm

14:45

24.7 C

1004.3 hpa

35 %

8.0 km/h aus 115

17.7 km/h aus E

8.2 C

24.1 C

24.7 C

24.1 C

0 W/m

0.00 mm

14:50

24.6 C

1004.3 hpa

34 %

9.7 km/h aus 116

19.3 km/h aus E

7.7 C

23.9 C

24.6 C

23.9 C

0 W/m

0.00 mm

14:55

24.6 C

1004.3 hpa

35 %

8.0 km/h aus 117

19.3 km/h aus E

8.1 C

24.0 C

24.6 C

24.0 C

0 W/m

0.00 mm

15:00

24.6 C

1004.0 hpa

35 %

9.7 km/h aus 116

19.3 km/h aus E

8.1 C

23.9 C

24.6 C

23.9 C

0 W/m

0.00 mm

15:05

24.6 C

1004.0 hpa

36 %

8.0 km/h aus 116

22.5 km/h aus ENE

8.5 C

24.0 C

24.6 C

24.0 C

0 W/m

0.00 mm

15:10

24.8 C

1004.0 hpa

39 %

11.3 km/h aus 117

22.5 km/h aus E

9.9 C

24.3 C

24.8 C

24.3 C

0 W/m

0.00 mm

15:15

24.7 C

1003.7 hpa

36 %

11.3 km/h aus 117

20.9 km/h aus SSE

8.6 C

24.2 C

24.7 C

24.2 C

0 W/m

0.00 mm

15:20

24.9 C

1003.7 hpa

37 %

6.4 km/h aus 117

12.9 km/h aus ESE

9.2 C

24.4 C

24.9 C

24.4 C

0 W/m

0.00 mm

15:25

25.2 C

1003.7 hpa

36 %

9.7 km/h aus 115

14.5 km/h aus E

9.0 C

24.6 C

25.2 C

24.6 C

0 W/m

0.00 mm

15:30

24.8 C

1003.4 hpa

34 %

9.7 km/h aus 115

19.3 km/h aus ESE

7.8 C

24.2 C

24.8 C

24.2 C

0 W/m

0.00 mm

15:35

24.7 C

1003.4 hpa

36 %

8.0 km/h aus 116

22.5 km/h aus E

8.6 C

24.1 C

24.7 C

24.1 C

0 W/m

0.00 mm

15:40

24.8 C

1003.4 hpa

33 %

9.7 km/h aus 115

19.3 km/h aus E

7.5 C

24.2 C

24.8 C

24.2 C

0 W/m

0.00 mm

15:45

24.8 C

1003.3 hpa

34 %

12.9 km/h aus 117

20.9 km/h aus ESE

7.8 C

23.9 C

24.5 C

24.2 C

0 W/m

0.00 mm

15:50

24.7 C

1003.3 hpa

33 %

6.4 km/h aus 116

12.9 km/h aus E

7.3 C

24.0 C

24.7 C

24.0 C

0 W/m

0.00 mm

15:55

24.7 C

1003.3 hpa

33 %

8.0 km/h aus 114

19.3 km/h aus SE

7.4 C

24.1 C

24.7 C

24.1 C

0 W/m

0.00 mm

16:00

24.9 C

1002.9 hpa

33 %

9.7 km/h aus 117

19.3 km/h aus ESE

7.5 C

24.3 C

24.9 C

24.3 C

0 W/m

0.00 mm

16:05

25.0 C

1002.9 hpa

34 %

9.7 km/h aus 117

17.7 km/h aus ESE

8.0 C

24.4 C

25.0 C

24.4 C

0 W/m

0.00 mm

16:10

24.7 C

1002.9 hpa

37 %

6.4 km/h aus 116

17.7 km/h aus S

9.0 C

24.1 C

24.7 C

24.1 C

0 W/m

0.00 mm

16:15

24.7 C

1002.8 hpa

34 %

3.2 km/h aus 116

9.7 km/h aus S

7.7 C

24.0 C

24.7 C

24.0 C

0 W/m

0.00 mm

16:20

24.7 C

1002.8 hpa

33 %

4.8 km/h aus 116

11.3 km/h aus ESE

7.4 C

24.1 C

24.7 C

24.1 C

0 W/m

0.00 mm

16:25

24.8 C

1002.8 hpa

31 %

4.8 km/h aus 115

9.7 km/h aus ENE

6.5 C

24.2 C

24.8 C

24.2 C

0 W/m

0.00 mm

16:30

25.0 C

1002.8 hpa

35 %

6.4 km/h aus 116

16.1 km/h aus ENE

8.5 C

24.4 C

25.0 C

24.4 C

0 W/m

0.00 mm

16:35

25.1 C

1002.8 hpa

33 %

9.7 km/h aus 115

16.1 km/h aus ESE

7.7 C

24.4 C

25.1 C

24.4 C

0 W/m

0.00 mm

16:40

24.9 C

1002.8 hpa

38 %

6.4 km/h aus 116

11.3 km/h aus ESE

9.6 C

24.4 C

24.9 C

24.4 C

0 W/m

0.00 mm

16:45

24.7 C

1002.7 hpa

39 %

6.4 km/h aus 114

9.7 km/h aus SSE

9.8 C

24.2 C

24.7 C

24.2 C

0 W/m

0.00 mm

16:50

23.9 C

1002.7 hpa

39 %

9.7 km/h aus 115

14.5 km/h aus S

9.1 C

23.4 C

23.9 C

23.4 C

0 W/m

0.00 mm

16:55

23.9 C

1002.7 hpa

37 %

8.0 km/h aus 115

17.7 km/h aus ESE

8.4 C

23.4 C

23.9 C

23.4 C

0 W/m

0.00 mm

17:00

24.1 C

1002.3 hpa

38 %

3.2 km/h aus 116

6.4 km/h aus ESE

8.9 C

23.5 C

24.1 C

23.5 C

0 W/m

0.00 mm

17:05

24.2 C

1002.3 hpa

37 %

4.8 km/h aus 116

9.7 km/h aus SE

8.6 C

23.6 C

24.2 C

23.6 C

0 W/m

0.00 mm

17:10

24.2 C

1002.3 hpa

36 %

6.4 km/h aus 114

11.3 km/h aus SE

8.1 C

23.6 C

24.2 C

23.6 C

0 W/m

0.00 mm

17:15

24.4 C

1002.3 hpa

36 %

9.7 km/h aus 117

19.3 km/h aus SE

8.3 C

23.8 C

24.4 C

23.8 C

0 W/m

0.00 mm

17:20

23.8 C

1002.3 hpa

40 %

6.4 km/h aus 116

14.5 km/h aus ENE

9.4 C

23.4 C

23.8 C

23.4 C

0 W/m

0.00 mm

17:25

23.9 C

1002.3 hpa

37 %

8.0 km/h aus 113

17.7 km/h aus ESE

8.4 C

23.4 C

23.9 C

23.4 C

0 W/m

0.00 mm

17:30

23.9 C

1001.9 hpa

36 %

9.7 km/h aus 113

19.3 km/h aus ESE

8.0 C

23.3 C

23.9 C

23.3 C

0 W/m

0.00 mm

17:35

24.3 C

1001.9 hpa

36 %

9.7 km/h aus 116

17.7 km/h aus ESE

8.2 C

23.7 C

24.3 C

23.7 C

0 W/m

0.00 mm

17:40

24.4 C

1001.9 hpa

38 %

9.7 km/h aus 115

19.3 km/h aus E

9.2 C

23.9 C

24.4 C

23.9 C

0 W/m

0.00 mm

17:45

24.7 C

1001.8 hpa

38 %

8.0 km/h aus 116

16.1 km/h aus ENE

9.4 C

24.1 C

24.7 C

24.1 C

0 W/m

0.00 mm

17:50

24.5 C

1001.8 hpa

38 %

6.4 km/h aus 114

16.1 km/h aus ESE

9.2 C

23.9 C

24.5 C

23.9 C

0 W/m

0.00 mm

17:55

24.4 C

1001.8 hpa

37 %

8.0 km/h aus 116

16.1 km/h aus ESE

8.8 C

23.8 C

24.4 C

23.8 C

0 W/m

0.00 mm

18:00

24.4 C

1001.8 hpa

36 %

8.0 km/h aus 118

17.7 km/h aus E

8.3 C

23.8 C

24.4 C

23.8 C

0 W/m

0.00 mm

18:05

24.2 C

1001.8 hpa

38 %

9.7 km/h aus 115

17.7 km/h aus ESE

8.9 C

23.6 C

24.2 C

23.6 C

0 W/m

0.00 mm

18:10

23.6 C

1001.8 hpa

38 %

12.9 km/h aus 115

20.9 km/h aus SE

8.5 C

22.8 C

23.3 C

23.1 C

0 W/m

0.00 mm

18:15

23.2 C

1001.7 hpa

40 %

9.7 km/h aus 115

19.3 km/h aus ESE

8.9 C

22.7 C

23.2 C

22.7 C

0 W/m

0.00 mm

18:20

23.2 C

1001.7 hpa

41 %

9.7 km/h aus 115

16.1 km/h aus SE

9.2 C

22.7 C

23.2 C

22.7 C

0 W/m

0.00 mm

18:25

23.1 C

1001.7 hpa

41 %

8.0 km/h aus 115

19.3 km/h aus SE

9.1 C

22.5 C

23.1 C

22.5 C

0 W/m

0.00 mm

18:30

23.0 C

1001.6 hpa

43 %

8.0 km/h aus 113

16.1 km/h aus SE

9.7 C

22.5 C

23.0 C

22.5 C

0 W/m

0.00 mm

18:35

22.9 C

1001.6 hpa

41 %

11.3 km/h aus 112

20.9 km/h aus ESE

8.9 C

22.3 C

22.9 C

22.3 C

0 W/m

0.00 mm

18:40

22.7 C

1001.6 hpa

43 %

6.4 km/h aus 117

11.3 km/h aus ESE

9.4 C

22.0 C

22.7 C

22.0 C

0 W/m

0.00 mm

18:45

22.4 C

1001.4 hpa

44 %

6.4 km/h aus 115

11.3 km/h aus SE

9.6 C

21.7 C

22.4 C

21.7 C

0 W/m

0.00 mm

18:50

22.3 C

1001.4 hpa

44 %

6.4 km/h aus 112

11.3 km/h aus SE

9.4 C

21.5 C

22.3 C

21.5 C

0 W/m

0.00 mm

18:55

22.1 C

1001.4 hpa

45 %

6.4 km/h aus 115

14.5 km/h aus E

9.6 C

21.3 C

22.1 C

21.3 C

0 W/m

0.00 mm

19:00

22.1 C

1001.3 hpa

46 %

6.4 km/h aus 113

16.1 km/h aus ESE

9.9 C

21.2 C

22.1 C

21.2 C

0 W/m

0.00 mm

19:05

21.9 C

1001.3 hpa

46 %

9.7 km/h aus 115

19.3 km/h aus SE

9.7 C

21.0 C

21.9 C

21.0 C

0 W/m

0.00 mm

19:10

21.8 C

1001.3 hpa

47 %

9.7 km/h aus 107

19.3 km/h aus SE

10.0 C

20.9 C

21.8 C

20.9 C

0 W/m

0.00 mm

19:15

21.5 C

1001.3 hpa

47 %

12.9 km/h aus 114

17.7 km/h aus SE

9.7 C

20.2 C

21.2 C

20.5 C

0 W/m

0.00 mm

19:20

21.2 C

1001.3 hpa

48 %

9.7 km/h aus 112

16.1 km/h aus ESE

9.8 C

20.2 C

21.2 C

20.2 C

0 W/m

0.00 mm

19:25

21.1 C

1001.3 hpa

49 %

8.0 km/h aus 114

16.1 km/h aus ESE

9.9 C

20.1 C

21.1 C

20.1 C

0 W/m

0.00 mm

19:30

20.9 C

1001.2 hpa

49 %

8.0 km/h aus 110

17.7 km/h aus E

9.8 C

20.0 C

20.9 C

20.0 C

0 W/m

0.00 mm

19:35

20.8 C

1001.2 hpa

49 %

6.4 km/h aus 116

11.3 km/h aus SE

9.7 C

19.9 C

20.8 C

19.9 C

0 W/m

0.00 mm

19:40

20.8 C

1001.2 hpa

49 %

9.7 km/h aus 113

17.7 km/h aus ESE

9.7 C

19.9 C

20.8 C

19.9 C

0 W/m

0.00 mm

19:45

20.6 C

1001.0 hpa

50 %

9.7 km/h aus 112

19.3 km/h aus ESE

9.8 C

19.8 C

20.6 C

19.8 C

0 W/m

0.00 mm

19:50

20.3 C

1001.0 hpa

51 %

6.4 km/h aus 111

11.3 km/h aus SE

9.9 C

19.6 C

20.3 C

19.6 C

0 W/m

0.00 mm

19:55

20.1 C

1001.0 hpa

51 %

4.8 km/h aus 110

12.9 km/h aus SE

9.6 C

19.4 C

20.1 C

19.4 C

0 W/m

0.00 mm

20:00

19.8 C

1001.0 hpa

52 %

6.4 km/h aus 109

16.1 km/h aus SE

9.6 C

19.2 C

19.8 C

19.2 C

0 W/m

0.00 mm

20:05

19.6 C

1001.0 hpa

53 %

8.0 km/h aus 111

16.1 km/h aus ESE

9.7 C

18.9 C

19.6 C

18.9 C

0 W/m

0.00 mm

20:10

19.3 C

1001.0 hpa

53 %

6.4 km/h aus 111

11.3 km/h aus SE

9.5 C

18.6 C

19.3 C

18.6 C

0 W/m

0.00 mm

20:15

18.9 C

1001.1 hpa

54 %

6.4 km/h aus 111

11.3 km/h aus ESE

9.4 C

18.3 C

18.9 C

18.3 C

0 W/m

0.00 mm

20:20

18.5 C

1001.1 hpa

56 %

6.4 km/h aus 108

11.3 km/h aus ESE

9.6 C

17.9 C

18.5 C

17.9 C

0 W/m

0.00 mm

20:25

18.3 C

1001.1 hpa

57 %

6.4 km/h aus 111

14.5 km/h aus SE

9.6 C

17.7 C

18.3 C

17.7 C

0 W/m

0.00 mm

20:30

18.2 C

1001.0 hpa

57 %

6.4 km/h aus 110

16.1 km/h aus ESE

9.6 C

17.6 C

18.2 C

17.6 C

0 W/m

0.00 mm

20:35

18.0 C

1001.0 hpa

57 %

4.8 km/h aus 105

9.7 km/h aus SSE

9.3 C

17.4 C

18.0 C

17.4 C

0 W/m

0.00 mm

20:40

17.8 C

1001.0 hpa

58 %

4.8 km/h aus 113

8.0 km/h aus SE

9.4 C

17.2 C

17.8 C

17.2 C

0 W/m

0.00 mm

20:45

17.6 C

1001.0 hpa

58 %

4.8 km/h aus 104

9.7 km/h aus E

9.2 C

16.9 C

17.6 C

16.9 C

0 W/m

0.00 mm

20:50

17.3 C

1001.0 hpa

60 %

4.8 km/h aus 106

9.7 km/h aus SE

9.4 C

16.7 C

17.3 C

16.7 C

0 W/m

0.00 mm

20:55

16.9 C

1001.0 hpa

61 %

4.8 km/h aus 101

9.7 km/h aus SE

9.3 C

16.3 C

16.9 C

16.3 C

0 W/m

0.00 mm

21:00

16.6 C

1001.0 hpa

62 %

4.8 km/h aus 105

8.0 km/h aus SE

9.3 C

16.1 C

16.6 C

16.1 C

0 W/m

0.00 mm

21:05

16.4 C

1001.0 hpa

62 %

3.2 km/h aus 111

8.0 km/h aus SE

9.1 C

15.9 C

16.4 C

15.9 C

0 W/m

0.00 mm

21:10

16.4 C

1001.0 hpa

62 %

4.8 km/h aus 113

9.7 km/h aus SE

9.1 C

15.8 C

16.4 C

15.8 C

0 W/m

0.00 mm

21:15

16.2 C

1001.0 hpa

64 %

4.8 km/h aus 112

11.3 km/h aus SE

9.3 C

15.7 C

16.2 C

15.7 C

0 W/m

0.00 mm

21:20

16.1 C

1001.0 hpa

64 %

4.8 km/h aus 111

11.3 km/h aus SE

9.3 C

15.6 C

16.1 C

15.6 C

0 W/m

0.00 mm

21:25

16.1 C

1001.0 hpa

64 %

6.4 km/h aus 107

14.5 km/h aus SE

9.3 C

15.6 C

16.1 C

15.6 C

0 W/m

0.00 mm

21:30

16.2 C

1000.9 hpa

64 %

4.8 km/h aus 110

9.7 km/h aus SE

9.3 C

15.7 C

16.2 C

15.7 C

0 W/m

0.00 mm

21:35

16.3 C

1000.9 hpa

64 %

4.8 km/h aus 109

12.9 km/h aus ESE

9.5 C

15.8 C

16.3 C

15.8 C

0 W/m

0.00 mm

21:40

16.3 C

1000.9 hpa

64 %

4.8 km/h aus 103

8.0 km/h aus SE

9.5 C

15.8 C

16.3 C

15.8 C

0 W/m

0.00 mm

21:45

16.1 C

1000.9 hpa

65 %

3.2 km/h aus 111

8.0 km/h aus SE

9.5 C

15.7 C

16.1 C

15.7 C

0 W/m

0.00 mm

21:50

16.0 C

1000.9 hpa

66 %

4.8 km/h aus 112

11.3 km/h aus SE

9.6 C

15.6 C

16.0 C

15.6 C

0 W/m

0.00 mm

21:55

15.8 C

1000.9 hpa

67 %

8.0 km/h aus 108

16.1 km/h aus S

9.7 C

15.4 C

15.8 C

15.4 C

0 W/m

0.00 mm

22:00

15.6 C

1000.8 hpa

68 %

4.8 km/h aus 103

6.4 km/h aus SSW

9.7 C

15.2 C

15.6 C

15.2 C

0 W/m

0.00 mm

22:05

15.3 C

1000.8 hpa

69 %

6.4 km/h aus 106

9.7 km/h aus S

9.6 C

14.9 C

15.3 C

14.9 C

0 W/m

0.00 mm

22:10

15.2 C

1000.8 hpa

69 %

4.8 km/h aus 106

9.7 km/h aus SSE

9.6 C

14.8 C

15.2 C

14.8 C

0 W/m

0.00 mm

22:15

15.1 C

1000.7 hpa

70 %

4.8 km/h aus 105

9.7 km/h aus SSE

9.7 C

14.7 C

15.1 C

14.7 C

0 W/m

0.00 mm

22:20

15.0 C

1000.7 hpa

71 %

6.4 km/h aus 106

11.3 km/h aus SE

9.8 C

14.6 C

15.0 C

14.6 C

0 W/m

0.00 mm

22:25

15.0 C

1000.7 hpa

71 %

4.8 km/h aus 112

9.7 km/h aus SE

9.8 C

14.6 C

15.0 C

14.6 C

0 W/m

0.00 mm

22:30

14.8 C

1000.7 hpa

72 %

4.8 km/h aus 113

8.0 km/h aus SE

9.8 C

14.4 C

14.8 C

14.4 C

0 W/m

0.00 mm

22:35

14.7 C

1000.7 hpa

72 %

3.2 km/h aus 103

8.0 km/h aus SE

9.7 C

14.4 C

14.7 C

14.4 C

0 W/m

0.00 mm

22:40

14.7 C

1000.7 hpa

72 %

3.2 km/h aus 109

6.4 km/h aus SE

9.7 C

14.3 C

14.7 C

14.3 C

0 W/m

0.00 mm

22:45

14.6 C

1000.5 hpa

73 %

4.8 km/h aus 113

8.0 km/h aus SE

9.8 C

14.2 C

14.6 C

14.2 C

0 W/m

0.00 mm

22:50

14.3 C

1000.5 hpa

74 %

4.8 km/h aus 111

6.4 km/h aus SE

9.8 C

14.0 C

14.3 C

14.0 C

0 W/m

0.00 mm

22:55

14.3 C

1000.5 hpa

74 %

4.8 km/h aus 108

6.4 km/h aus SE

9.7 C

13.9 C

14.3 C

13.9 C

0 W/m

0.00 mm

23:00

14.1 C

1000.4 hpa

75 %

3.2 km/h aus 110

8.0 km/h aus SE

9.7 C

13.8 C

14.1 C

13.8 C

0 W/m

0.00 mm

23:05

14.1 C

1000.4 hpa

75 %

1.6 km/h aus 110

4.8 km/h aus SE

9.7 C

13.8 C

14.1 C

13.8 C

0 W/m

0.00 mm

23:10

14.1 C

1000.4 hpa

75 %

3.2 km/h aus 103

4.8 km/h aus SE

9.7 C

13.8 C

14.1 C

13.8 C

0 W/m

0.00 mm

23:15

14.2 C

1000.2 hpa

74 %

1.6 km/h aus 113

4.8 km/h aus SE

9.6 C

13.8 C

14.2 C

13.8 C

0 W/m

0.00 mm

23:20

14.1 C

1000.2 hpa

74 %

0.0 km/h aus 109

1.6 km/h aus SE

9.5 C

13.8 C

14.1 C

13.8 C

0 W/m

0.00 mm

23:25

13.9 C

1000.2 hpa

75 %

0.0 km/h aus 104

1.6 km/h aus SE

9.6 C

13.7 C

13.9 C

13.7 C

0 W/m

0.00 mm

23:30

13.6 C

1000.3 hpa

76 %

3.2 km/h aus 107

4.8 km/h aus SE

9.4 C

13.3 C

13.6 C

13.3 C

0 W/m

0.00 mm

23:35

13.5 C

1000.3 hpa

77 %

1.6 km/h aus 109

4.8 km/h aus SE

9.5 C

13.2 C

13.5 C

13.2 C

0 W/m

0.00 mm

23:40

13.4 C

1000.3 hpa

78 %

0.0 km/h aus 113

3.2 km/h aus SE

9.7 C

13.2 C

13.4 C

13.2 C

0 W/m

0.00 mm

23:45

13.4 C

1000.2 hpa

78 %

0.0 km/h aus 110

0.0 km/h aus ---

9.7 C

13.2 C

13.4 C

13.2 C

0 W/m

0.00 mm

23:50

13.4 C

1000.2 hpa

78 %

0.0 km/h aus 110

0.0 km/h aus ---

9.6 C

13.2 C

13.4 C

13.2 C

0 W/m

0.00 mm

23:55

13.2 C

1000.2 hpa

78 %

0.0 km/h aus 107

0.0 km/h aus ---

9.5 C

13.0 C

13.2 C

13.0 C

0 W/m

0.00 mm